Probability
0 0 0 0 0 0 0 0 0 0 0 0 0 0 1 1 1 1 1 1 0 0 0 0 0 1 1 1 1 1 0 2 5 4 3 6 7 7
0 0 0 0 0 0 0 0 0 0 0 0 0 0 0 0 1 1 1 0 0 0 0 0 0 0 0 0 0 0 0 1 2 2 1 2 3 3
0 0 0 0 0 0 0 0 0 0 0 0 0 0 0 0 0 1 0 1 1 1 0 0 0 0 0 0 0 0 0 0 0 0 0 0 0 0
0 0 0 0 0 0 0 0 0 0 0 0 0 0 0 0 0 1 1 1 1 1 0 0 0 0 0 0 0 0 0 0 0 0 0 0 0 0
0 0 0 0 0 0 0 0 0 0 0 0 0 0 0 0 0 0 1 2 1 0 0 0 0 0 0 0 0 0 0 0 0 0 0 0 0 0
0 0 0 0 0 0 0 0 0 0 0 0 0 0 0 0 0 0 1 2 2 1 1 1 1 1 0 0 0 0 0 0 0 0 0 0 0 0
0 0 0 0 0 0 0 0 0 0 0 0 0 0 0 0 0 0 0 1 2 3 4 4 3 3 2 1 0 0 0 0 0 0 0 0 0 0
0 0 0 0 0 0 0 0 0 0 0 0 0 0 0 0 0 0 0 1 1 3 5 6 6 5 4 3 1 0 0 0 0 0 0 0 0 0
0 0 0 0 0 0 0 0 0 0 0 0 0 0 0 0 0 1 1 2 2 3 5 6 6 5 3 2 1 0 0 0 0 0 0 0 0 0
0 0 0 0 0 0 0 0 0 0 0 0 0 0 0 0 0 1 2 3 2 3 4 4 4 3 3 2 1 0 0 0 0 0 0 0 0 0
0 0 0 0 0 0 0 0 0 0 0 0 0 0 0 0 0 1 2 3 2 3 4 3 3 3 3 2 1 0 0 0 0 0 0 0 0 0
0 0 0 0 0 0 0 0 0 0 0 0 0 0 0 0 1 1 2 3 3 3 3 3 3 2 1 1 2 2 2 1 0 0 0 0 0 0
0 0 0 0 0 0 0 0 0 0 0 0 0 0 0 0 1 2 2 2 2 2 2 2 2 1 0 1 3 5 5 4 2 1 0 0 0 0
0 0 0 0 0 0 0 0 0 0 0 0 0 0 0 0 1 1 1 1 1 1 0 1 1 1 0 1 3 4 4 4 3 2 1 0 0 0
0 0 0 0 0 0 0 0 0 0 0 0 0 0 0 0 0 0 0 0 0 0 0 0 0 0 0 0 1 1 1 2 2 2 2 1 0 0
0 0 0 0 0 0 0 0 0 0 0 0 0 0 0 0 0 0 0 0 0 0 0 0 0 0 0 0 0 0 0 1 1 1 1 1 0 0
0 0 0 1 1 1 0 0 0 0 0 0 0 0 0 0 0 0 0 0 0 0 0 1 0 0 0 0 0 0 0 0 0 0 0 0 0 0
0 0 1 2 2 1 0 0 0 0 0 1 1 0 0 0 0 0 0 0 0 0 0 0 0 0 0 0 0 0 0 0 0 0 0 0 0 0
0 0 1 1 1 1 1 1 0 0 1 2 1 0 0 0 0 0 0 0 0 0 0 0 0 0 0 0 0 0 0 0 0 0 0 0 0 0
0 0 0 0 0 1 2 2 1 1 2 3 2 1 0 0 0 0 0 0 0 0 0 0 0 0 0 0 0 0 0 0 0 0 0 0 0 0
0 0 0 0 1 2 3 3 1 1 2 2 2 1 0 0 0 0 0 0 0 0 0 0 0 0 0 0 0 0 0 0 0 0 0 0 0 0
0 0 0 1 2 4 4 3 1 1 1 1 1 1 0 0 0 0 0 0 0 0 0 0 0 1 1 1 0 0 0 0 0 0 0 0 0 0
0 0 1 2 3 4 4 3 1 1 1 0 0 0 0 0 0 0 0 0 0 0 0 0 1 2 2 1 0 0 0 0 0 0 0 0 0 0
Wind_Speed
3 3 4 3 3 4 4 5 6 7 5 2 3 1 2 2 1 4 5 3 5 7 8 9 10 11 12 13 14 15 16 17 18 19 20 20 21 22
3 4 5 5 4 4 4 5 5 6 7 4 3 3 4 5 3 5 6 5 9 9 9 9 9 9 10 12 13 14 16 17 18 19 19 19 20 21
4 4 5 5 6 6 5 5 5 6 7 7 5 4 4 7 6 6 7 7 7 10 10 9 10 10 10 11 13 14 15 17 18 19 20 20 20 21
5 5 6 5 5 7 6 7 6 6 8 9 7 6 6 7 7 7 8 7 7 7 10 10 11 11 11 12 12 13 14 16 17 18 19 20 21 22
5 5 6 6 7 6 6 7 6 6 7 8 8 6 6 6 7 8 9 7 9 8 10 13 13 13 13 13 13 13 14 15 16 16 17 18 19 20
5 6 6 6 7 7 7 7 7 8 8 8 8 7 7 7 7 8 8 7 7 8 7 7 9 13 15 15 15 15 15 15 16 16 17 17 18 18
6 6 7 5 6 7 8 7 7 7 8 8 8 8 7 6 7 7 8 7 8 8 8 8 8 9 10 14 17 16 15 15 15 16 17 17 17 18
7 7 7 7 8 11 11 10 10 10 10 9 9 9 9 9 7 8 8 9 9 6 7 8 8 9 8 9 9 13 15 15 15 16 16 17 17 18
8 8 8 6 5 8 9 13 14 15 14 12 13 12 11 9 9 10 9 10 10 8 8 10 9 10 9 8 8 11 13 14 15 15 16 17 17 17
8 8 8 9 7 7 9 10 10 10 11 12 12 12 12 10 10 11 11 11 12 10 10 11 10 10 9 8 9 12 13 14 15 15 16 16 17 17
8 8 8 9 3 3 9 11 11 10 10 12 12 12 12 11 10 10 11 10 11 10 8 10 11 10 9 9 9 13 14 14 15 15 16 16 16 15
7 7 8 9 5 5 9 10 11 10 10 9 10 13 14 14 15 13 12 11 11 10 8 8 10 9 10 9 8 7 9 12 15 15 16 16 15 12
7 7 4 9 9 9 10 11 11 10 11 12 11 10 10 9 10 11 12 11 12 11 9 7 9 9 10 9 8 7 7 7 8 10 14 16 16 14
9 8 4 5 8 10 10 11 10 9 11 10 10 9 9 8 8 9 10 11 12 14 12 11 10 10 10 11 9 8 7 7 8 8 8 10 14 16
9 8 8 7 8 11 15 15 12 10 10 10 10 9 8 8 8 8 10 11 13 14 13 14 13 11 11 11 11 9 8 8 7 8 8 8 8 9
11 10 13 14 13 12 10 11 11 10 9 10 9 9 8 8 8 8 9 9 10 10 12 13 13 13 11 12 10 10 9 8 7 7 7 7 7 8
7 9 9 8 8 9 9 8 8 8 9 9 9 9 9 9 8 8 8 8 10 10 9 7 9 10 12 11 10 10 9 9 8 8 7 8 8 8
7 11 10 10 9 9 9 8 8 8 8 8 8 9 9 9 8 8 8 9 9 9 9 7 7 7 8 9 11 11 10 9 8 8 8 9 9 7
9 11 11 10 9 9 9 9 9 8 7 8 8 9 9 9 9 8 8 8 9 9 8 8 7 8 9 10 8 10 10 8 8 8 8 8 9 8
10 11 10 9 9 9 9 9 8 8 7 7 8 8 8 9 9 9 8 9 8 8 8 8 7 8 9 9 8 7 10 10 8 8 8 7 7 6
9 9 9 9 9 9 8 8 9 8 8 7 8 8 8 9 9 9 9 9 9 9 9 8 7 8 8 7 8 9 7 9 8 7 7 6 7 7
10 9 8 8 8 8 8 8 9 8 8 8 8 8 8 8 10 11 9 9 8 8 9 8 7 7 8 9 10 9 8 6 6 7 7 7 7 7
9 9 8 8 7 7 8 9 10 9 8 8 8 8 8 8 8 8 9 9 8 8 9 8 7 7 8 9 9 8 9 8 6 5 5 6 9 9
Wind_Direction
284 263 278 292 278 285 286 288 294 294 284 237 250 243 259 267 225 264 270 208 225 238 241 241 238 234 229 226 228 229 229 228 227 226 225 224 223 223
293 311 300 293 300 284 281 278 278 287 292 297 283 289 309 299 260 278 272 233 230 231 236 240 242 240 235 232 231 230 229 228 228 227 225 224 223 222
282 279 281 299 295 292 278 273 270 272 279 283 281 275 273 279 288 284 274 263 245 212 223 235 242 243 242 239 236 234 232 230 229 228 226 224 223 223
289 291 287 282 281 280 286 282 278 279 276 283 285 279 271 270 272 274 273 268 270 217 212 229 235 238 239 240 239 236 234 233 230 229 228 226 225 225
290 288 288 287 281 283 282 280 279 272 272 277 278 280 275 273 276 268 267 265 268 249 217 221 227 232 236 237 237 236 234 233 232 231 230 230 228 226
283 283 282 282 282 285 275 269 273 279 273 271 274 273 269 267 267 269 267 255 259 268 262 247 228 225 231 232 232 233 232 233 233 233 232 230 229 228
277 273 273 277 298 287 291 295 287 277 276 272 274 274 272 274 274 279 279 279 266 261 264 258 243 237 229 227 228 230 229 230 231 232 232 231 230 229
279 279 273 240 235 231 245 261 275 278 283 286 281 280 282 280 280 280 281 279 276 265 266 267 263 259 253 249 222 213 224 229 231 232 233 232 231 230
281 280 280 284 262 265 240 228 240 241 247 268 280 283 286 284 286 281 275 279 282 289 283 274 268 264 260 253 214 214 224 230 232 232 233 232 231 231
274 274 276 281 282 284 281 275 271 257 242 242 259 268 274 283 281 276 279 275 268 260 258 267 268 266 264 260 218 214 224 231 234 234 233 232 231 231
270 270 271 273 270 257 270 274 276 275 254 237 249 262 273 274 274 275 269 268 270 267 253 259 267 270 267 262 243 214 220 227 232 233 233 233 231 231
266 259 241 245 260 231 262 271 275 280 288 277 248 244 249 248 236 242 257 262 267 270 264 259 267 271 271 259 253 238 228 225 226 230 231 230 225 227
279 275 264 192 222 233 249 264 273 286 286 279 272 265 256 251 243 234 237 249 261 265 269 264 267 267 265 272 269 259 252 250 236 232 227 224 218 218
276 281 285 187 225 239 243 253 261 268 267 268 269 269 267 263 258 256 250 248 252 263 273 276 271 269 269 269 267 265 258 254 254 253 246 219 215 220
269 284 289 262 253 248 238 240 246 249 258 263 267 269 270 270 269 264 258 253 253 255 256 254 255 259 259 264 268 267 267 264 258 255 252 244 234 220
252 256 238 240 244 261 261 232 234 248 261 270 274 275 273 266 259 260 261 258 257 258 247 243 246 251 254 257 262 265 264 263 262 259 254 252 246 238
298 272 268 261 253 250 251 253 254 250 247 255 264 269 270 268 266 263 260 263 262 265 266 252 242 240 247 254 258 258 259 258 254 253 253 254 249 245
273 267 268 268 270 271 270 265 257 255 257 261 262 265 270 273 273 268 262 260 263 265 267 266 259 251 249 246 238 254 257 258 258 250 248 250 252 244
242 259 264 266 268 269 269 269 270 268 265 263 265 266 267 269 269 269 266 264 266 267 267 265 258 255 260 264 251 224 247 258 256 252 247 248 253 250
243 257 264 266 267 268 269 270 271 272 267 263 264 266 268 270 271 269 267 267 269 270 269 261 252 252 257 268 277 264 231 247 253 253 254 255 259 253
256 257 261 264 266 268 268 268 269 271 272 270 266 264 266 268 270 270 269 265 263 268 268 267 261 250 258 261 262 262 253 226 240 253 256 255 255 248
267 268 267 266 267 268 268 265 264 262 263 261 263 264 265 267 270 271 271 268 263 264 270 272 269 257 254 255 258 262 264 251 231 228 239 254 254 248
271 272 274 273 269 264 262 263 265 268 267 265 266 264 267 271 270 270 271 268 267 268 269 272 270 263 260 259 262 264 263 261 250 238 239 243 238 245